Satellite: CO-57
Catalog number: 27848
Epoch time:      09211.00857095
Element set:     581
Inclination:      098.7149 deg
RA of node:       218.6305 deg
Eccentricity:    0.0010492
Arg of perigee:   028.4049 deg
Mean anomaly:     331.7701 deg
Mean motion:   14.20449436 rev/day
Decay rate:        6.0e-08 rev/day^2
Epoch rev:           31530
Checksum:              297

Satellite: AO-51
Catalog number: 28375
Epoch time:      09210.95639064
Element set:    0450
Inclination:      098.0518 deg
RA of node:       218.0655 deg
Eccentricity:    0.0084924
Arg of perigee:   355.9726 deg
Mean anomaly:     004.0770 deg
Mean motion:   14.40647949 rev/day
Decay rate:       -6.0e-08 rev/day^2
Epoch rev:           26711
Checksum:              318

Satellite: CO-56
Catalog number: 28941
Epoch time:      09211.52668876
Element set:     301
Inclination:      098.1384 deg
RA of node:       034.3091 deg
Eccentricity:    0.0069368
Arg of perigee:   327.1941 deg
Mean anomaly:     032.5020 deg
Mean motion:   15.90128562 rev/day
Decay rate:     5.2688e-04 rev/day^2
Epoch rev:           19412
Checksum:              317

Satellite: GENESAT1
Catalog number: 29655
Epoch time:      09210.58838663
Element set:     769
Inclination:      040.0233 deg
RA of node:       277.4778 deg
Eccentricity:    0.0001319
Arg of perigee:   072.6060 deg
Mean anomaly:     287.4900 deg
Mean motion:   15.66421958 rev/day
Decay rate:      8.199e-05 rev/day^2
Epoch rev:           14912
Checksum:              327

Satellite: CP3
Catalog number: 31129
Epoch time:      09211.65109621
Element set:      96
Inclination:      097.9855 deg
RA of node:       262.6429 deg
Eccentricity:    0.0103241
Arg of perigee:   149.9247 deg
Mean anomaly:     210.7915 deg
Mean motion:   14.52150541 rev/day
Decay rate:        5.0e-08 rev/day^2
Epoch rev:           12119
Checksum:              281

Satellite: CO-65
Catalog number: 32785
Epoch time:      09211.89117734
Element set:     432
Inclination:      097.9426 deg
RA of node:       275.4919 deg
Eccentricity:    0.0013924
Arg of perigee:   248.2442 deg
Mean anomaly:     111.7281 deg
Mean motion:   14.81504700 rev/day
Decay rate:       2.76e-06 rev/day^2
Epoch rev:            6791
Checksum:              316

Satellite: KKS-1
Catalog number: 33493
Epoch time:      09211.82143132
Element set:     614
Inclination:      098.0593 deg
RA of node:       324.2286 deg
Eccentricity:    0.0021537
Arg of perigee:   100.0689 deg
Mean anomaly:     260.2965 deg
Mean motion:   14.80706561 rev/day
Decay rate:       2.37e-06 rev/day^2
Epoch rev:            2792
Checksum:              284

Satellite: SOHLA-1
Catalog number: 33496
Epoch time:      09211.76262439
Element set:     578
Inclination:      098.0407 deg
RA of node:       320.3978 deg
Eccentricity:    0.0007291
Arg of perigee:   135.6001 deg
Mean anomaly:     224.5795 deg
Mean motion:   14.69441804 rev/day
Decay rate:        4.7e-07 rev/day^2
Epoch rev:            2767
Checksum:              312

/EX
SB KEPS @ AMSAT  $ORB09211.W
Orbital Elements  09211.WEATHER

HR AMSAT ORBITAL ELEMENTS FOR WEATHER SATELLITES
FROM WA5QGD FORT WORTH,TX July 30, 2009
Send Subscribe/unsubscribe to KEPS at 
http://www.amsat.org/mailman/listinfo/keps
BID: ORB09211.W
TO ALL RADIO AMATEURS BT

Satellite: NOAA-10
Catalog number: 16969
Epoch time:      09210.63641460
Element set:    0706
Inclination:      098.6899 deg
RA of node:       237.0504 deg
Eccentricity:    0.0013244
Arg of perigee:   073.8561 deg
Mean anomaly:     286.4060 deg
Mean motion:   14.27390708 rev/day
Decay rate:       -9.0e-07 rev/day^2
Epoch rev:           18956
Checksum:              318

Satellite: NOAA-11
Catalog number: 19531
Epoch time:      09210.70768086
Element set:    0723
Inclination:      098.7830 deg
RA of node:       300.0050 deg
Eccentricity:    0.0011528
Arg of perigee:   351.8718 deg
Mean anomaly:     008.2263 deg
Mean motion:   14.14900210 rev/day
Decay rate:        2.5e-07 rev/day^2
Epoch rev:           07553
Checksum:              261

Satellite: NOAA-12
Catalog number: 21263
Epoch time:      09210.99120427
Element set:    0228
Inclination:      098.7722 deg
RA of node:       219.0703 deg
Eccentricity:    0.0013204
Arg of perigee:   026.3127 deg
Mean anomaly:     333.8722 deg
Mean motion:   14.25587055 rev/day
Decay rate:        2.3e-07 rev/day^2
Epoch rev:           94649
Checksum:              281

Satellite: MET-3/5
Catalog number: 21655
Epoch time:      09210.91987555
Element set:    0639
Inclination:      082.5579 deg
RA of node:       176.3102 deg
Eccentricity:    0.0015159
Arg of perigee:   075.0821 deg
Mean anomaly:     285.1978 deg
Mean motion:   13.17021138 rev/day
Decay rate:        5.1e-07 rev/day^2
Epoch rev:           86325
Checksum:              314

Satellite: MET-2/21
Catalog number: 22782
Epoch time:      09211.85682951
Element set:     524
Inclination:      082.5497 deg
RA of node:       147.3739 deg
Eccentricity:    0.0021097
Arg of perigee:   221.7657 deg
Mean anomaly:     138.1894 deg
Mean motion:   13.83638647 rev/day
Decay rate:       1.14e-06 rev/day^2
Epoch rev:           80364
Checksum:              332

